| time (UTC) | temp C | wind direction | speed KPH | gust KPH | rain 1hr cm | rain 24hr cm | rain mn cm | humidity % | barometer mb |
| 20260503215144 | 25 | 141 | 11.3 | 20.9 | 0.00 | 0.00 | 0.00 | 30 | 1000.0 |
| 20260503214644 | 25 | 141 | 11.3 | 20.9 | 0.00 | 0.00 | 0.00 | 30 | 1000.0 |
| 20260503214145 | 25 | 141 | 11.3 | 20.9 | 0.00 | 0.00 | 0.00 | 30 | 1000.0 |
| 20260503213645 | 25 | 141 | 11.3 | 20.9 | 0.00 | 0.00 | 0.00 | 30 | 1000.0 |
| 20260503213144 | 25 | 141 | 11.3 | 20.9 | 0.00 | 0.00 | 0.00 | 30 | 1000.0 |
| 20260503212645 | 25 | 141 | 11.3 | 20.9 | 0.00 | 0.00 | 0.00 | 30 | 1000.0 |
| 20260503212145 | 25 | 141 | 11.3 | 20.9 | 0.00 | 0.00 | 0.00 | 30 | 1000.0 |
| 20260503211645 | 25 | 141 | 11.3 | 20.9 | 0.00 | 0.00 | 0.00 | 30 | 1000.0 |
| 20260503211144 | 25 | 141 | 11.3 | 20.9 | 0.00 | 0.00 | 0.00 | 30 | 1000.0 |
| 20260503210646 | 25 | 141 | 11.3 | 20.9 | 0.00 | 0.00 | 0.00 | 30 | 1000.0 |
| 20260503210145 | 25 | 141 | 11.3 | 20.9 | 0.00 | 0.00 | 0.00 | 30 | 1000.0 |
| 20260503205644 | 25 | 141 | 11.3 | 20.9 | 0.00 | 0.00 | 0.00 | 30 | 1000.0 |
| 20260503205145 | 25 | 141 | 11.3 | 20.9 | 0.00 | 0.00 | 0.00 | 30 | 1000.0 |
| 20260503204644 | 25 | 141 | 11.3 | 20.9 | 0.00 | 0.00 | 0.00 | 30 | 1000.0 |
| 20260503204144 | 25 | 141 | 11.3 | 20.9 | 0.00 | 0.00 | 0.00 | 30 | 1000.0 |
| 20260503203645 | 25 | 141 | 11.3 | 20.9 | 0.00 | 0.00 | 0.00 | 30 | 1000.0 |
| 20260503203144 | 25 | 141 | 11.3 | 20.9 | 0.00 | 0.00 | 0.00 | 30 | 1000.0 |
| 20260503202644 | 25 | 141 | 11.3 | 20.9 | 0.00 | 0.00 | 0.00 | 30 | 1000.0 |
| 20260503202145 | 25 | 141 | 11.3 | 20.9 | 0.00 | 0.00 | 0.00 | 30 | 1000.0 |
| 20260503201644 | 25 | 141 | 11.3 | 20.9 | 0.00 | 0.00 | 0.00 | 30 | 1000.0 |
| 20260503201144 | 25 | 141 | 11.3 | 20.9 | 0.00 | 0.00 | 0.00 | 30 | 1000.0 |
| 20260503200644 | 25 | 141 | 11.3 | 20.9 | 0.00 | 0.00 | 0.00 | 30 | 1000.0 |
| 20260503200145 | 25 | 141 | 11.3 | 20.9 | 0.00 | 0.00 | 0.00 | 30 | 1000.0 |
| 20260503195644 | 25 | 141 | 11.3 | 20.9 | 0.00 | 0.00 | 0.00 | 30 | 1000.0 |
| 20260503195144 | 25 | 141 | 11.3 | 20.9 | 0.00 | 0.00 | 0.00 | 30 | 1000.0 |
| 20260503194644 | 25 | 141 | 11.3 | 20.9 | 0.00 | 0.00 | 0.00 | 30 | 1000.0 |
| 20260503194144 | 25 | 141 | 11.3 | 20.9 | 0.00 | 0.00 | 0.00 | 30 | 1000.0 |
| 20260503193644 | 25 | 141 | 11.3 | 20.9 | 0.00 | 0.00 | 0.00 | 30 | 1000.0 |
| 20260503193145 | 25 | 103 | 4.8 | 17.7 | 0.00 | 0.00 | 0.00 | 28 | 1000.0 |
| 20260503192644 | 25 | 204 | 12.9 | 35.4 | 0.00 | 0.00 | 0.00 | 30 | 1001.0 |
| 20260503192145 | 24 | 265 | 6.4 | 24.1 | 0.00 | 0.00 | 0.00 | 30 | 1001.0 |
| 20260503191644 | 24 | 197 | 3.2 | 22.5 | 0.00 | 0.00 | 0.00 | 29 | 1001.0 |
| 20260503191144 | 24 | 154 | 19.3 | 35.4 | 0.00 | 0.00 | 0.00 | 29 | 1001.0 |
| 20260503190645 | 24 | 127 | 11.3 | 25.7 | 0.00 | 0.00 | 0.00 | 29 | 1001.0 |
| 20260503190144 | 24 | 161 | 19.3 | 33.8 | 0.00 | 0.00 | 0.00 | 28 | 1001.0 |
| 20260503185644 | 23 | 171 | 24.1 | 43.5 | 0.00 | 0.00 | 0.00 | 27 | 1001.0 |
| 20260503185144 | 23 | 156 | 11.3 | 32.2 | 0.00 | 0.00 | 0.00 | 29 | 1002.0 |
| 20260503184644 | 23 | 136 | 22.5 | 27.4 | 0.00 | 0.00 | 0.00 | 31 | 1002.0 |
| 20260503184144 | 23 | 156 | 29.0 | 43.5 | 0.00 | 0.00 | 0.00 | 30 | 1002.0 |
| 20260503183645 | 23 | 190 | 19.3 | 35.4 | 0.00 | 0.00 | 0.00 | 32 | 1002.0 |
| 20260503183145 | 23 | 146 | 22.5 | 35.4 | 0.00 | 0.00 | 0.00 | 31 | 1003.0 |
| 20260503182644 | 23 | 171 | 30.6 | 38.6 | 0.00 | 0.00 | 0.00 | 30 | 1002.0 |
| 20260503182145 | 22 | 173 | 29.0 | 40.2 | 0.00 | 0.00 | 0.00 | 34 | 1003.0 |
| 20260503181645 | 22 | 224 | 22.5 | 32.2 | 0.00 | 0.00 | 0.00 | 36 | 1003.0 |
| 20260503181145 | 22 | 172 | 27.4 | 37.0 | 0.00 | 0.00 | 0.00 | 36 | 1003.0 |
| 20260503180645 | 22 | 207 | 22.5 | 32.2 | 0.00 | 0.00 | 0.00 | 36 | 1003.0 |
| 20260503180144 | 22 | 163 | 14.5 | 29.0 | 0.00 | 0.00 | 0.00 | 37 | 1004.0 |
| 20260503175644 | 22 | 176 | 27.4 | 37.0 | 0.00 | 0.00 | 0.00 | 37 | 1004.0 |
| 20260503175144 | 22 | 224 | 20.9 | 33.8 | 0.00 | 0.00 | 0.00 | 39 | 1004.0 |
| 20260503174644 | 21 | 214 | 19.3 | 33.8 | 0.00 | 0.00 | 0.00 | 40 | 1004.0 |
| 20260503174144 | 22 | 189 | 17.7 | 22.5 | 0.00 | 0.00 | 0.00 | 39 | 1004.0 |
| 20260503173644 | 22 | 188 | 20.9 | 24.1 | 0.00 | 0.00 | 0.00 | 40 | 1004.0 |
| 20260503173144 | 21 | 151 | 14.5 | 27.4 | 0.00 | 0.00 | 0.00 | 41 | 1004.0 |
| 20260503172644 | 22 | 201 | 11.3 | 29.0 | 0.00 | 0.00 | 0.00 | 40 | 1005.0 |
| 20260503172145 | 22 | 158 | 14.5 | 35.4 | 0.00 | 0.00 | 0.00 | 40 | 1005.0 |
| 20260503171645 | 21 | 129 | 24.1 | 32.2 | 0.00 | 0.00 | 0.00 | 41 | 1005.0 |
| 20260503171144 | 21 | 158 | 11.3 | 17.7 | 0.00 | 0.00 | 0.00 | 41 | 1005.0 |
| 20260503170645 | 21 | 152 | 12.9 | 22.5 | 0.00 | 0.00 | 0.00 | 42 | 1005.0 |
| 20260503170144 | 21 | 176 | 24.1 | 37.0 | 0.00 | 0.00 | 0.00 | 42 | 1006.0 |
| 20260503160145 | 17 | 122 | 9.7 | 9.7 | 0.00 | 0.00 | 0.00 | 50 | 1009.0 |
| 20260503150644 | 14 | 96 | 3.2 | 4.8 | 0.00 | 0.00 | 0.00 | 58 | 1012.0 |
| 20260503150145 | 13 | 111 | 1.6 | 4.8 | 0.00 | 0.00 | 0.00 | 59 | 1013.0 |
| 20260503140145 | 10 | 82 | 1.6 | 1.6 | 0.00 | 0.00 | 0.00 | 72 | 1016.0 |
| 20260503131145 | 6 | 189 | 3.2 | 3.2 | 0.00 | 0.00 | 0.00 | 85 | 1018.0 |
| 20260503130644 | 6 | 179 | 3.2 | 3.2 | 0.00 | 0.00 | 0.00 | 86 | 1018.0 |
| 20260503130145 | 5 | 176 | 3.2 | 4.8 | 0.00 | 0.00 | 0.00 | 85 | 1019.0 |
| 20260503120144 | 5 | 263 | 0.0 | 0.0 | 0.00 | 0.00 | 0.00 | 81 | 1019.0 |
| 20260503110712 | 6 | 177 | 3.2 | 3.2 | 0.00 | 0.00 | 0.00 | 75 | 1018.0 |
| 20260503110144 | 6 | 134 | 3.2 | 3.2 | 0.00 | 0.00 | 0.00 | 74 | 1017.0 |
| 20260503100145 | 7 | 36 | 0.0 | 0.0 | 0.00 | 0.00 | 0.00 | 73 | 1017.0 |
| 20260503090145 | 8 | 132 | 0.0 | 0.0 | 0.00 | 0.00 | 0.00 | 71 | 1016.0 |
| 20260503081144 | 9 | 128 | 0.0 | 3.2 | 0.00 | 0.00 | 0.00 | 65 | 1015.0 |
| 20260503080645 | 10 | 113 | 1.6 | 3.2 | 0.00 | 0.00 | 0.00 | 65 | 1015.0 |
| 20260503080144 | 10 | 118 | 3.2 | 3.2 | 0.00 | 0.00 | 0.00 | 65 | 1015.0 |
| 20260503072645 | 11 | 117 | 8.0 | 11.3 | 0.00 | 0.00 | 0.00 | 65 | 1014.0 |
| 20260503072144 | 11 | 112 | 6.4 | 9.7 | 0.00 | 0.00 | 0.00 | 65 | 1014.0 |
| 20260503071645 | 11 | 118 | 4.8 | 9.7 | 0.00 | 0.00 | 0.00 | 65 | 1014.0 |
| 20260503071144 | 11 | 115 | 6.4 | 11.3 | 0.00 | 0.00 | 0.00 | 65 | 1014.0 |
| 20260503070644 | 11 | 114 | 8.0 | 11.3 | 0.00 | 0.00 | 0.00 | 65 | 1014.0 |
| 20260503070145 | 11 | 121 | 6.4 | 11.3 | 0.00 | 0.00 | 0.00 | 65 | 1014.0 |
| 20260503060144 | 12 | 113 | 8.0 | 11.3 | 0.00 | 0.00 | 0.00 | 66 | 1013.0 |
| 20260503054645 | 12 | 102 | 6.4 | 9.7 | 0.00 | 0.00 | 0.03 | 65 | 1013.0 |
| 20260503054144 | 12 | 94 | 6.4 | 11.3 | 0.00 | 0.00 | 0.03 | 65 | 1013.0 |
| 20260503053644 | 12 | 90 | 6.4 | 11.3 | 0.00 | 0.00 | 0.03 | 65 | 1012.0 |
| 20260503053145 | 12 | 88 | 8.0 | 14.5 | 0.00 | 0.00 | 0.03 | 65 | 1013.0 |
| 20260503052159 | 13 | 86 | 11.3 | 14.5 | 0.00 | 0.00 | 0.03 | 65 | 1012.0 |
| 20260503051644 | 13 | 80 | 9.7 | 11.3 | 0.00 | 0.00 | 0.03 | 65 | 1012.0 |
| 20260503051145 | 13 | 90 | 8.0 | 9.7 | 0.00 | 0.00 | 0.03 | 65 | 1012.0 |
| 20260503050644 | 13 | 84 | 6.4 | 9.7 | 0.00 | 0.00 | 0.03 | 64 | 1012.0 |
| 20260503050144 | 13 | 77 | 8.0 | 14.5 | 0.00 | 0.00 | 0.03 | 64 | 1012.0 |
| 20260503045645 | 13 | 92 | 9.7 | 12.9 | 0.00 | 0.00 | 0.03 | 64 | 1011.0 |
| 20260503045144 | 14 | 73 | 11.3 | 16.1 | 0.00 | 0.00 | 0.03 | 64 | 1011.0 |
| 20260503044644 | 14 | 64 | 12.9 | 16.1 | 0.00 | 0.00 | 0.03 | 64 | 1011.0 |
| 20260503044145 | 15 | 57 | 12.9 | 17.7 | 0.00 | 0.00 | 0.03 | 64 | 1011.0 |
| 20260503043644 | 15 | 58 | 12.9 | 16.1 | 0.00 | 0.00 | 0.03 | 63 | 1011.0 |
| 20260503043144 | 15 | 59 | 14.5 | 16.1 | 0.00 | 0.00 | 0.03 | 62 | 1010.0 |
| 20260503042644 | 15 | 49 | 8.0 | 11.3 | 0.00 | 0.00 | 0.03 | 61 | 1010.0 |
| 20260503042144 | 15 | 42 | 8.0 | 9.7 | 0.00 | 0.00 | 0.03 | 60 | 1010.0 |
| 20260503041644 | 15 | 31 | 8.0 | 11.3 | 0.00 | 0.00 | 0.03 | 59 | 1010.0 |
| 20260503041144 | 15 | 23 | 6.4 | 9.7 | 0.00 | 0.00 | 0.03 | 59 | 1010.0 |
| 20260503040645 | 15 | 20 | 4.8 | 11.3 | 0.00 | 0.00 | 0.03 | 59 | 1010.0 |
| 20260503040144 | 15 | 40 | 9.7 | 11.3 | 0.00 | 0.00 | 0.03 | 59 | 1010.0 |
| 20260503035644 | 15 | 35 | 8.0 | 11.3 | 0.00 | 0.00 | 0.03 | 59 | 1010.0 |
| 20260503035144 | 15 | 27 | 8.0 | 11.3 | 0.00 | 0.00 | 0.03 | 59 | 1010.0 |
| 20260503034645 | 15 | 18 | 6.4 | 9.7 | 0.00 | 0.00 | 0.03 | 59 | 1010.0 |
| 20260503034144 | 15 | 32 | 6.4 | 11.3 | 0.00 | 0.00 | 0.03 | 59 | 1010.0 |
| 20260503033644 | 15 | 34 | 8.0 | 11.3 | 0.00 | 0.00 | 0.03 | 59 | 1010.0 |
| 20260503033144 | 15 | 32 | 11.3 | 11.3 | 0.00 | 0.00 | 0.03 | 59 | 1010.0 |
| 20260503032644 | 15 | 20 | 11.3 | 14.5 | 0.00 | 0.00 | 0.03 | 58 | 1009.0 |
| 20260503032146 | 15 | 23 | 12.9 | 16.1 | 0.00 | 0.00 | 0.03 | 58 | 1009.0 |
| 20260503031645 | 15 | 12 | 12.9 | 16.1 | 0.00 | 0.00 | 0.03 | 57 | 1009.0 |
| 20260503031144 | 16 | 20 | 11.3 | 17.7 | 0.00 | 0.00 | 0.03 | 57 | 1009.0 |
| 20260503030644 | 16 | 43 | 14.5 | 20.9 | 0.05 | 0.00 | 0.03 | 57 | 1008.0 |
| 20260503030144 | 16 | 36 | 12.9 | 22.5 | 0.13 | 0.00 | 0.03 | 57 | 1008.0 |
| 20260503025644 | 16 | 305 | 6.4 | 22.5 | 0.05 | 0.00 | 0.00 | 58 | 1008.0 |
| 20260503025144 | 16 | 6 | 16.1 | 22.5 | 0.00 | 0.00 | 0.00 | 50 | 1008.0 |
| 20260503024645 | 17 | 20 | 14.5 | 20.9 | 0.00 | 0.00 | 0.00 | 49 | 1007.0 |
| 20260503024144 | 17 | 34 | 14.5 | 17.7 | 0.00 | 0.00 | 0.00 | 48 | 1007.0 |
| 20260503023645 | 17 | 21 | 11.3 | 16.1 | 0.00 | 0.00 | 0.00 | 47 | 1007.0 |
| 20260503023144 | 17 | 38 | 17.7 | 22.5 | 0.00 | 0.00 | 0.00 | 47 | 1007.0 |
| 20260503022644 | 17 | 40 | 16.1 | 24.1 | 0.00 | 0.00 | 0.00 | 46 | 1006.0 |
| 20260503022144 | 17 | 59 | 17.7 | 25.7 | 0.00 | 0.00 | 0.00 | 47 | 1006.0 |
| 20260503021645 | 17 | 50 | 19.3 | 25.7 | 0.00 | 0.00 | 0.00 | 47 | 1006.0 |
| 20260503021144 | 17 | 49 | 19.3 | 25.7 | 0.00 | 0.00 | 0.00 | 46 | 1006.0 |
| 20260503020645 | 17 | 57 | 20.9 | 33.8 | 0.00 | 0.00 | 0.00 | 46 | 1006.0 |
| 20260503020144 | 17 | 56 | 20.9 | 29.0 | 0.00 | 0.00 | 0.00 | 46 | 1005.0 |
| 20260503015645 | 17 | 56 | 19.3 | 29.0 | 0.00 | 0.00 | 0.00 | 45 | 1005.0 |
| 20260503015144 | 17 | 53 | 22.5 | 27.4 | 0.00 | 0.00 | 0.00 | 46 | 1006.0 |
| 20260503014644 | 18 | 58 | 16.1 | 20.9 | 0.00 | 0.00 | 0.00 | 45 | 1005.0 |
| 20260503014144 | 18 | 47 | 12.9 | 17.7 | 0.00 | 0.00 | 0.00 | 45 | 1005.0 |
| 20260503013644 | 18 | 71 | 17.7 | 32.2 | 0.00 | 0.00 | 0.00 | 44 | 1005.0 |
| 20260503013144 | 18 | 80 | 20.9 | 27.4 | 0.00 | 0.00 | 0.00 | 44 | 1004.0 |
| 20260503012644 | 18 | 72 | 22.5 | 35.4 | 0.00 | 0.00 | 0.00 | 43 | 1004.0 |
| 20260503012144 | 18 | 76 | 30.6 | 37.0 | 0.00 | 0.00 | 0.00 | 43 | 1004.0 |
| 20260503011646 | 18 | 76 | 24.1 | 33.8 | 0.00 | 0.00 | 0.00 | 42 | 1004.0 |
| 20260503011145 | 19 | 81 | 22.5 | 32.2 | 0.00 | 0.00 | 0.00 | 41 | 1003.0 |
| 20260503010644 | 19 | 80 | 17.7 | 25.7 | 0.00 | 0.00 | 0.00 | 41 | 1004.0 |
| 20260503010144 | 19 | 77 | 20.9 | 32.2 | 0.00 | 0.00 | 0.00 | 40 | 1003.0 |
| 20260503005644 | 20 | 80 | 16.1 | 32.2 | 0.00 | 0.00 | 0.00 | 40 | 1003.0 |
| 20260503005144 | 20 | 80 | 17.7 | 27.4 | 0.00 | 0.00 | 0.00 | 39 | 1003.0 |
| 20260503004644 | 20 | 87 | 16.1 | 25.7 | 0.00 | 0.00 | 0.00 | 39 | 1003.0 |
| 20260503004144 | 20 | 74 | 20.9 | 25.7 | 0.00 | 0.00 | 0.00 | 40 | 1003.0 |
| 20260503003646 | 20 | 67 | 24.1 | 29.0 | 0.00 | 0.00 | 0.00 | 39 | 1002.0 |
| 20260503003144 | 20 | 65 | 19.3 | 32.2 | 0.00 | 0.00 | 0.00 | 38 | 1002.0 |
| 20260503002645 | 20 | 62 | 22.5 | 29.0 | 0.00 | 0.00 | 0.00 | 38 | 1002.0 |
| 20260503002144 | 21 | 73 | 17.7 | 29.0 | 0.00 | 0.00 | 0.00 | 37 | 1002.0 |
| 20260503001644 | 21 | 72 | 17.7 | 29.0 | 0.00 | 0.00 | 0.00 | 36 | 1001.0 |
| 20260503001144 | 21 | 84 | 24.1 | 32.2 | 0.00 | 0.00 | 0.00 | 35 | 1001.0 |
| 20260503000645 | 21 | 82 | 24.1 | 27.4 | 0.00 | 0.00 | 0.00 | 35 | 1001.0 |
| 20260503000144 | 21 | 102 | 16.1 | 27.4 | 0.00 | 0.00 | 0.00 | 36 | 1001.0 |
| 20260502235644 | 21 | 62 | 17.7 | 29.0 | 0.00 | 0.00 | 0.00 | 37 | 1001.0 |
| 20260502234656 | 21 | 63 | 19.3 | 27.4 | 0.00 | 0.00 | 0.00 | 37 | 1002.0 |
| 20260502234144 | 21 | 65 | 19.3 | 24.1 | 0.00 | 0.00 | 0.00 | 37 | 1001.0 |
| 20260502233644 | 21 | 67 | 24.1 | 27.4 | 0.00 | 0.00 | 0.00 | 37 | 1002.0 |
| 20260502233144 | 21 | 77 | 32.2 | 35.4 | 0.00 | 0.00 | 0.00 | 37 | 1001.0 |
| 20260502232644 | 21 | 76 | 29.0 | 38.6 | 0.00 | 0.00 | 0.00 | 37 | 1001.0 |
| 20260502232144 | 21 | 68 | 27.4 | 38.6 | 0.00 | 0.00 | 0.00 | 37 | 1001.0 |
| 20260502231644 | 22 | 52 | 22.5 | 38.6 | 0.00 | 0.00 | 0.00 | 36 | 1001.0 |
| 20260502231144 | 21 | 77 | 25.7 | 33.8 | 0.00 | 0.00 | 0.00 | 35 | 1001.0 |
| 20260502230644 | 21 | 69 | 29.0 | 37.0 | 0.00 | 0.00 | 0.00 | 36 | 1001.0 |
| 20260502230144 | 21 | 58 | 19.3 | 32.2 | 0.00 | 0.00 | 0.00 | 36 | 1001.0 |
| 20260502225644 | 21 | 62 | 25.7 | 35.4 | 0.00 | 0.00 | 0.00 | 36 | 1001.0 |
| 20260502225144 | 22 | 54 | 29.0 | 43.5 | 0.00 | 0.00 | 0.00 | 35 | 1001.0 |
| 20260502224644 | 22 | 37 | 19.3 | 35.4 | 0.00 | 0.00 | 0.00 | 33 | 1000.0 |
| 20260502224145 | 22 | 62 | 32.2 | 41.8 | 0.00 | 0.00 | 0.00 | 33 | 1000.0 |
| 20260502223645 | 23 | 64 | 27.4 | 29.0 | 0.00 | 0.00 | 0.00 | 33 | 1000.0 |
| 20260502223145 | 23 | 69 | 33.8 | 40.2 | 0.00 | 0.00 | 0.00 | 33 | 1000.0 |
| 20260502222644 | 22 | 75 | 20.9 | 35.4 | 0.00 | 0.00 | 0.00 | 33 | 1000.0 |
| 20260502222145 | 22 | 48 | 25.7 | 38.6 | 0.00 | 0.00 | 0.00 | 33 | 1000.0 |
| 20260502221644 | 22 | 36 | 25.7 | 48.3 | 0.00 | 0.00 | 0.00 | 33 | 1000.0 |
| 20260502221144 | 22 | 50 | 25.7 | 37.0 | 0.00 | 0.00 | 0.00 | 32 | 1000.0 |
| 20260502220644 | 23 | 22 | 8.0 | 11.3 | 0.00 | 0.00 | 0.00 | 26 | 1000.0 |
| 20260502220145 | 23 | 52 | 1.6 | 8.0 | 0.00 | 0.00 | 0.00 | 27 | 1000.0 |
| 20260502215645 | 23 | 356 | 0.0 | 4.8 | 0.00 | 0.00 | 0.00 | 27 | 1000.0 |